QPF
0.01 0.02 0.01 0.01 0.01 0.02 0.02 0.01 0.02 0.02 0.03 0.02 0.01 0.01 0.01 0.02 0.02 0.03 0.03 0.04 0.05 0.06 0.07 0.11 0.09 0.06 0.06 0.06 0.04 0.03 0.02 0.02 0.02 0.02 0.01 0.02 0.02 0.02 0.02 0.01 0.01 0.01 0.01
0.02 0.04 0.02 0.01 0.02 0.02 0.01 0.01 0.01 0.02 0.03 0.04 0.03 0.01 0.02 0.02 0.02 0.03 0.03 0.04 0.05 0.07 0.08 0.11 0.13 0.11 0.10 0.09 0.07 0.05 0.04 0.04 0.03 0.04 0.03 0.03 0.04 0.04 0.04 0.04 0.02 0.02 0.02
0.04 0.03 0.03 0.02 0.02 0.02 0.02 0.02 0.03 0.03 0.03 0.03 0.03 0.02 0.02 0.02 0.02 0.04 0.04 0.05 0.05 0.07 0.09 0.09 0.11 0.13 0.12 0.11 0.11 0.10 0.08 0.06 0.05 0.05 0.05 0.04 0.05 0.04 0.04 0.04 0.03 0.03 0.03
0.05 0.05 0.04 0.03 0.02 0.03 0.02 0.03 0.03 0.03 0.03 0.03 0.03 0.02 0.03 0.05 0.04 0.07 0.06 0.07 0.07 0.06 0.06 0.09 0.10 0.10 0.12 0.14 0.15 0.14 0.12 0.10 0.08 0.07 0.06 0.06 0.06 0.05 0.04 0.05 0.05 0.03 0.03
0.04 0.05 0.03 0.03 0.03 0.04 0.04 0.02 0.02 0.02 0.02 0.02 0.02 0.02 0.04 0.05 0.05 0.05 0.06 0.08 0.08 0.08 0.07 0.08 0.10 0.11 0.12 0.15 0.17 0.16 0.15 0.12 0.10 0.09 0.08 0.07 0.06 0.05 0.05 0.04 0.03 0.02 0.03
0.04 0.05 0.04 0.02 0.03 0.04 0.04 0.02 0.01 0.03 0.03 0.03 0.02 0.02 0.03 0.03 0.04 0.05 0.06 0.07 0.07 0.07 0.09 0.10 0.11 0.10 0.12 0.14 0.13 0.13 0.14 0.12 0.11 0.10 0.09 0.09 0.09 0.08 0.07 0.06 0.04 0.04 0.04
0.05 0.06 0.07 0.05 0.05 0.03 0.03 0.03 0.03 0.04 0.04 0.04 0.04 0.03 0.02 0.02 0.03 0.03 0.03 0.05 0.05 0.05 0.05 0.06 0.08 0.11 0.10 0.12 0.14 0.13 0.12 0.12 0.12 0.10 0.10 0.09 0.08 0.06 0.06 0.06 0.05 0.04 0.04
0.05 0.07 0.07 0.06 0.06 0.05 0.05 0.04 0.03 0.04 0.04 0.04 0.04 0.04 0.02 0.01 0.01 0.01 0.02 0.03 0.05 0.05 0.06 0.07 0.08 0.10 0.10 0.10 0.10 0.10 0.11 0.11 0.11 0.13 0.13 0.10 0.06 0.05 0.06 0.06 0.06 0.05 0.06
0.04 0.06 0.06 0.05 0.07 0.05 0.05 0.04 0.05 0.04 0.04 0.04 0.04 0.04 0.04 0.02 0.01 0.01 0.01 0.02 0.03 0.05 0.06 0.06 0.07 0.07 0.07 0.08 0.07 0.08 0.11 0.11 0.11 0.14 0.14 0.10 0.08 0.05 0.05 0.05 0.05 0.06 0.07
0.03 0.05 0.06 0.06 0.05 0.05 0.04 0.04 0.05 0.04 0.05 0.06 0.05 0.05 0.05 0.05 0.03 0.01 0.01 0.02 0.03 0.04 0.05 0.06 0.05 0.06 0.07 0.08 0.09 0.08 0.09 0.12 0.14 0.15 0.17 0.14 0.11 0.10 0.10 0.11 0.08 0.07 0.07
0.04 0.05 0.06 0.06 0.07 0.07 0.06 0.05 0.04 0.05 0.05 0.07 0.08 0.07 0.06 0.05 0.04 0.03 0.03 0.04 0.05 0.04 0.04 0.06 0.07 0.07 0.06 0.07 0.07 0.08 0.09 0.10 0.10 0.11 0.14 0.16 0.15 0.15 0.17 0.16 0.12 0.11 0.12
0.02 0.02 0.04 0.06 0.08 0.07 0.07 0.06 0.07 0.08 0.09 0.09 0.08 0.08 0.07 0.07 0.07 0.07 0.07 0.07 0.07 0.07 0.08 0.09 0.09 0.09 0.07 0.06 0.06 0.07 0.09 0.09 0.09 0.11 0.13 0.16 0.19 0.20 0.21 0.18 0.17 0.18 0.15
0.01 0.03 0.03 0.04 0.03 0.03 0.04 0.06 0.07 0.08 0.08 0.09 0.09 0.08 0.07 0.05 0.05 0.05 0.06 0.07 0.09 0.08 0.08 0.07 0.07 0.08 0.08 0.07 0.06 0.08 0.09 0.11 0.12 0.10 0.11 0.14 0.19 0.21 0.19 0.17 0.20 0.21 0.17
0.02 0.02 0.02 0.02 0.02 0.02 0.03 0.04 0.04 0.06 0.08 0.07 0.07 0.08 0.07 0.06 0.07 0.07 0.08 0.10 0.10 0.10 0.08 0.06 0.05 0.06 0.06 0.06 0.07 0.09 0.09 0.10 0.10 0.10 0.10 0.12 0.14 0.16 0.18 0.18 0.17 0.18 0.17
0.01 0.02 0.03 0.03 0.02 0.02 0.04 0.04 0.03 0.05 0.05 0.06 0.06 0.06 0.07 0.08 0.08 0.08 0.09 0.11 0.09 0.06 0.04 0.04 0.05 0.06 0.07 0.08 0.08 0.07 0.06 0.08 0.09 0.10 0.12 0.12 0.12 0.14 0.16 0.16 0.15 0.17 0.18
0.01 0.01 0.02 0.03 0.03 0.03 0.03 0.03 0.03 0.03 0.04 0.04 0.04 0.04 0.05 0.06 0.05 0.05 0.05 0.06 0.06 0.06 0.04 0.04 0.04 0.06 0.06 0.07 0.08 0.06 0.06 0.09 0.11 0.11 0.13 0.14 0.14 0.13 0.11 0.12 0.13 0.13 0.13
0.02 0.01 0.01 0.02 0.03 0.03 0.03 0.02 0.02 0.03 0.03 0.03 0.03 0.04 0.04 0.03 0.04 0.04 0.04 0.04 0.06 0.07 0.08 0.07 0.05 0.05 0.05 0.05 0.06 0.06 0.07 0.08 0.10 0.12 0.13 0.14 0.13 0.12 0.12 0.11 0.11 0.11 0.10
0.01 0.01 0.01 0.02 0.02 0.03 0.03 0.03 0.03 0.03 0.04 0.06 0.07 0.05 0.06 0.06 0.06 0.07 0.08 0.07 0.07 0.08 0.08 0.07 0.07 0.06 0.06 0.05 0.05 0.05 0.06 0.08 0.10 0.11 0.08 0.08 0.10 0.10 0.11 0.12 0.10 0.08 0.07
0.01 0.01 0.02 0.02 0.03 0.03 0.04 0.04 0.05 0.04 0.04 0.05 0.05 0.05 0.05 0.06 0.07 0.07 0.07 0.07 0.06 0.07 0.08 0.07 0.06 0.06 0.05 0.05 0.05 0.04 0.05 0.06 0.06 0.07 0.08 0.08 0.07 0.07 0.08 0.08 0.08 0.08 0.07
0.01 0.01 0.01 0.02 0.02 0.03 0.03 0.03 0.04 0.04 0.03 0.02 0.02 0.03 0.04 0.05 0.05 0.04 0.05 0.05 0.05 0.06 0.05 0.05 0.05 0.06 0.05 0.05 0.04 0.04 0.04 0.04 0.05 0.06 0.07 0.07 0.08 0.09 0.09 0.09 0.09 0.08 0.07
0.01 0.01 0.01 0.02 0.02 0.02 0.02 0.02 0.02 0.03 0.03 0.02 0.02 0.02 0.03 0.04 0.05 0.05 0.05 0.04 0.03 0.03 0.03 0.03 0.04 0.04 0.04 0.03 0.03 0.02 0.02 0.03 0.03 0.04 0.04 0.04 0.04 0.04 0.05 0.04 0.04 0.04 0.03
0.02 0.02 0.02 0.02 0.02 0.01 0.02 0.02 0.02 0.02 0.03 0.03 0.03 0.03 0.03 0.04 0.04 0.04 0.04 0.03 0.02 0.02 0.02 0.02 0.03 0.02 0.02 0.03 0.03 0.03 0.03 0.03 0.03 0.03 0.03 0.03 0.04 0.03 0.03 0.02 0.02 0.02 0.01
0.02 0.03 0.03 0.03 0.02 0.03 0.03 0.03 0.03 0.02 0.03 0.02 0.02 0.02 0.02 0.02 0.02 0.01 0.02 0.02 0.02 0.02 0.02 0.02 0.02 0.01 0.01 0.02 0.04 0.05 0.05 0.04 0.04 0.04 0.05 0.06 0.06 0.05 0.05 0.05 0.05 0.03 0.02
0.01 0.01 0.01 0.01 0.01 0.02 0.03 0.02 0.03 0.02 0.02 0.01 0.02 0.02 0.02 0.02 0.01 0.01 0.01 0.01 0.01 0.01 0.01 0.01 0.01 0.01 0.01 0.02 0.03 0.04 0.05 0.06 0.07 0.07 0.07 0.08 0.09 0.11 0.10 0.10 0.10 0.09 0.08
0.01 0.01 0.00 0.01 0.01 0.01 0.02 0.03 0.03 0.02 0.01 0.01 0.01 0.02 0.03 0.03 0.01 0.01 0.01 0.01 0.01 0.00 0.01 0.01 0.01 0.01 0.02 0.02 0.03 0.02 0.02 0.03 0.04 0.05 0.07 0.11 0.12 0.12 0.10 0.09 0.08 0.09 0.09
0.01 0.01 0.00 0.01 0.01 0.01 0.01 0.02 0.02 0.01 0.01 0.01 0.01 0.00 0.01 0.01 0.02 0.02 0.01 0.01 0.01 0.00 0.01 0.01 0.01 0.01 0.02 0.02 0.02 0.02 0.02 0.02 0.02 0.02 0.02 0.04 0.05 0.06 0.06 0.04 0.04 0.04 0.06
MSLP
1014.93 1015.05 1015.13 1015.20 1015.29 1015.42 1015.61 1015.85 1016.11 1016.35 1016.54 1016.65 1016.68 1016.62 1016.52 1016.41 1016.34 1016.34 1016.41 1016.56 1016.77 1017.01 1017.24 1017.46 1017.63 1017.77 1017.88 1017.99 1018.10 1018.23 1018.38 1018.55 1018.72 1018.90 1019.06 1019.21 1019.36 1019.50 1019.64 1019.78 1019.92 1020.06 1020.20
1015.06 1015.20 1015.31 1015.40 1015.51 1015.64 1015.81 1016.01 1016.22 1016.41 1016.55 1016.61 1016.59 1016.50 1016.37 1016.23 1016.11 1016.06 1016.08 1016.18 1016.34 1016.54 1016.76 1016.96 1017.15 1017.30 1017.43 1017.55 1017.67 1017.80 1017.95 1018.11 1018.28 1018.46 1018.64 1018.82 1018.99 1019.17 1019.33 1019.49 1019.64 1019.78 1019.90
1015.14 1015.30 1015.44 1015.57 1015.70 1015.85 1016.01 1016.19 1016.36 1016.49 1016.58 1016.61 1016.56 1016.44 1016.29 1016.11 1015.96 1015.85 1015.80 1015.83 1015.92 1016.05 1016.22 1016.39 1016.57 1016.72 1016.87 1017.00 1017.13 1017.25 1017.39 1017.54 1017.71 1017.88 1018.07 1018.27 1018.47 1018.68 1018.87 1019.06 1019.22 1019.37 1019.48
1015.18 1015.36 1015.53 1015.70 1015.87 1016.03 1016.20 1016.35 1016.49 1016.59 1016.64 1016.64 1016.57 1016.45 1016.28 1016.09 1015.90 1015.73 1015.61 1015.55 1015.54 1015.58 1015.67 1015.79 1015.93 1016.07 1016.21 1016.34 1016.46 1016.59 1016.71 1016.85 1017.00 1017.16 1017.35 1017.56 1017.78 1018.01 1018.24 1018.45 1018.64 1018.80 1018.93
1015.21 1015.40 1015.60 1015.80 1016.00 1016.18 1016.34 1016.48 1016.59 1016.66 1016.69 1016.68 1016.61 1016.50 1016.34 1016.15 1015.94 1015.73 1015.53 1015.37 1015.26 1015.19 1015.18 1015.21 1015.29 1015.39 1015.50 1015.62 1015.73 1015.84 1015.95 1016.06 1016.18 1016.33 1016.50 1016.71 1016.94 1017.19 1017.44 1017.68 1017.90 1018.09 1018.24
1015.25 1015.43 1015.64 1015.85 1016.07 1016.26 1016.42 1016.55 1016.64 1016.70 1016.72 1016.71 1016.66 1016.57 1016.45 1016.28 1016.06 1015.82 1015.57 1015.32 1015.09 1014.91 1014.79 1014.72 1014.71 1014.75 1014.82 1014.91 1015.00 1015.09 1015.16 1015.24 1015.34 1015.46 1015.61 1015.80 1016.03 1016.28 1016.55 1016.81 1017.05 1017.26 1017.44
1015.28 1015.43 1015.63 1015.85 1016.07 1016.27 1016.42 1016.53 1016.61 1016.66 1016.68 1016.69 1016.68 1016.65 1016.57 1016.44 1016.25 1016.00 1015.70 1015.38 1015.06 1014.77 1014.53 1014.36 1014.26 1014.22 1014.24 1014.28 1014.33 1014.39 1014.44 1014.49 1014.55 1014.63 1014.76 1014.93 1015.14 1015.39 1015.66 1015.93 1016.18 1016.40 1016.59
1015.29 1015.40 1015.58 1015.79 1016.00 1016.18 1016.33 1016.43 1016.50 1016.54 1016.58 1016.62 1016.66 1016.68 1016.67 1016.60 1016.45 1016.22 1015.91 1015.53 1015.14 1014.75 1014.40 1014.13 1013.94 1013.82 1013.78 1013.77 1013.79 1013.81 1013.84 1013.86 1013.89 1013.95 1014.05 1014.19 1014.38 1014.61 1014.86 1015.12 1015.36 1015.57 1015.76
1015.25 1015.32 1015.46 1015.65 1015.84 1016.02 1016.16 1016.25 1016.31 1016.36 1016.42 1016.49 1016.58 1016.67 1016.73 1016.73 1016.64 1016.44 1016.13 1015.73 1015.28 1014.82 1014.39 1014.03 1013.75 1013.56 1013.46 1013.41 1013.40 1013.40 1013.41 1013.41 1013.43 1013.47 1013.55 1013.67 1013.84 1014.04 1014.26 1014.48 1014.69 1014.87 1015.02
1015.14 1015.17 1015.29 1015.46 1015.64 1015.81 1015.94 1016.03 1016.09 1016.14 1016.22 1016.32 1016.46 1016.61 1016.73 1016.80 1016.76 1016.60 1016.31 1015.91 1015.43 1014.92 1014.43 1014.00 1013.65 1013.41 1013.26 1013.18 1013.14 1013.13 1013.14 1013.15 1013.17 1013.21 1013.28 1013.39 1013.53 1013.70 1013.88 1014.06 1014.22 1014.36 1014.45
1014.98 1014.99 1015.09 1015.24 1015.42 1015.59 1015.72 1015.81 1015.87 1015.93 1016.01 1016.14 1016.31 1016.49 1016.67 1016.78 1016.79 1016.67 1016.41 1016.02 1015.53 1014.99 1014.46 1013.99 1013.60 1013.31 1013.12 1013.02 1012.98 1012.97 1012.99 1013.02 1013.06 1013.12 1013.20 1013.30 1013.43 1013.58 1013.73 1013.86 1013.97 1014.03 1014.06
1014.79 1014.79 1014.89 1015.05 1015.24 1015.41 1015.54 1015.63 1015.70 1015.76 1015.84 1015.97 1016.15 1016.35 1016.55 1016.69 1016.73 1016.64 1016.41 1016.03 1015.54 1015.00 1014.45 1013.95 1013.53 1013.22 1013.01 1012.90 1012.85 1012.86 1012.90 1012.96 1013.03 1013.12 1013.23 1013.35 1013.48 1013.61 1013.74 1013.83 1013.88 1013.89 1013.85
1014.62 1014.64 1014.75 1014.93 1015.13 1015.31 1015.45 1015.55 1015.61 1015.66 1015.73 1015.84 1016.01 1016.20 1016.40 1016.54 1016.60 1016.53 1016.31 1015.95 1015.48 1014.94 1014.39 1013.88 1013.45 1013.12 1012.90 1012.77 1012.73 1012.76 1012.82 1012.91 1013.02 1013.14 1013.28 1013.43 1013.57 1013.71 1013.83 1013.90 1013.92 1013.88 1013.79
1014.52 1014.57 1014.72 1014.92 1015.13 1015.33 1015.47 1015.57 1015.61 1015.65 1015.70 1015.78 1015.91 1016.08 1016.25 1016.38 1016.44 1016.37 1016.16 1015.82 1015.37 1014.85 1014.31 1013.80 1013.36 1013.02 1012.79 1012.66 1012.61 1012.63 1012.71 1012.82 1012.95 1013.11 1013.28 1013.45 1013.63 1013.78 1013.90 1013.97 1013.98 1013.93 1013.81
1014.54 1014.63 1014.81 1015.03 1015.26 1015.46 1015.60 1015.69 1015.72 1015.73 1015.75 1015.80 1015.89 1016.02 1016.15 1016.26 1016.30 1016.23 1016.03 1015.71 1015.29 1014.79 1014.27 1013.77 1013.33 1012.98 1012.73 1012.58 1012.51 1012.51 1012.57 1012.68 1012.82 1012.99 1013.17 1013.37 1013.57 1013.74 1013.89 1013.98 1014.00 1013.96 1013.85
1014.66 1014.80 1015.01 1015.25 1015.49 1015.69 1015.83 1015.90 1015.92 1015.90 1015.89 1015.90 1015.95 1016.04 1016.14 1016.22 1016.25 1016.18 1016.00 1015.70 1015.31 1014.84 1014.34 1013.86 1013.42 1013.06 1012.78 1012.59 1012.48 1012.45 1012.46 1012.53 1012.64 1012.79 1012.96 1013.16 1013.37 1013.56 1013.73 1013.85 1013.92 1013.91 1013.84
1014.87 1015.06 1015.30 1015.56 1015.80 1016.00 1016.12 1016.18 1016.18 1016.14 1016.10 1016.08 1016.10 1016.16 1016.23 1016.30 1016.32 1016.26 1016.10 1015.84 1015.49 1015.06 1014.60 1014.13 1013.70 1013.32 1013.01 1012.77 1012.59 1012.48 1012.42 1012.42 1012.46 1012.55 1012.67 1012.84 1013.03 1013.22 1013.41 1013.57 1013.68 1013.74 1013.73
1015.10 1015.34 1015.62 1015.89 1016.14 1016.32 1016.44 1016.48 1016.46 1016.41 1016.36 1016.32 1016.33 1016.37 1016.44 1016.50 1016.53 1016.49 1016.37 1016.15 1015.84 1015.46 1015.03 1014.59 1014.16 1013.77 1013.42 1013.12 1012.87 1012.66 1012.50 1012.39 1012.33 1012.32 1012.36 1012.45 1012.59 1012.76 1012.94 1013.13 1013.29 1013.40 1013.47
1015.29 1015.59 1015.90 1016.20 1016.45 1016.64 1016.75 1016.78 1016.76 1016.70 1016.64 1016.60 1016.61 1016.65 1016.73 1016.80 1016.85 1016.84 1016.76 1016.58 1016.32 1015.99 1015.61 1015.20 1014.78 1014.37 1013.98 1013.62 1013.29 1012.99 1012.71 1012.47 1012.28 1012.14 1012.06 1012.05 1012.10 1012.21 1012.36 1012.55 1012.74 1012.91 1013.06
1015.38 1015.75 1016.11 1016.44 1016.70 1016.90 1017.01 1017.05 1017.02 1016.97 1016.92 1016.89 1016.91 1016.96 1017.05 1017.14 1017.22 1017.24 1017.20 1017.07 1016.87 1016.59 1016.25 1015.87 1015.46 1015.05 1014.64 1014.23 1013.82 1013.41 1013.02 1012.65 1012.32 1012.04 1011.81 1011.67 1011.60 1011.62 1011.72 1011.87 1012.07 1012.29 1012.51
1015.35 1015.80 1016.22 1016.58 1016.88 1017.09 1017.22 1017.26 1017.25 1017.21 1017.17 1017.15 1017.18 1017.25 1017.36 1017.47 1017.57 1017.62 1017.61 1017.53 1017.37 1017.13 1016.84 1016.49 1016.11 1015.70 1015.27 1014.83 1014.36 1013.88 1013.39 1012.90 1012.43 1012.00 1011.63 1011.34 1011.14 1011.04 1011.05 1011.15 1011.32 1011.56 1011.83
1015.21 1015.74 1016.23 1016.65 1016.98 1017.22 1017.36 1017.42 1017.42 1017.39 1017.37 1017.37 1017.40 1017.49 1017.60 1017.72 1017.84 1017.91 1017.93 1017.87 1017.74 1017.54 1017.28 1016.97 1016.61 1016.22 1015.79 1015.33 1014.83 1014.29 1013.73 1013.14 1012.56 1012.00 1011.49 1011.06 1010.72 1010.50 1010.39 1010.42 1010.55 1010.78 1011.08
1015.00 1015.61 1016.17 1016.64 1017.01 1017.28 1017.45 1017.52 1017.54 1017.52 1017.50 1017.51 1017.55 1017.63 1017.74 1017.87 1017.98 1018.06 1018.08 1018.04 1017.92 1017.75 1017.51 1017.22 1016.89 1016.52 1016.10 1015.64 1015.13 1014.57 1013.96 1013.32 1012.65 1012.00 1011.37 1010.81 1010.35 1010.00 1009.79 1009.72 1009.79 1009.99 1010.29
1014.78 1015.45 1016.06 1016.58 1016.99 1017.29 1017.47 1017.56 1017.59 1017.58 1017.56 1017.57 1017.61 1017.68 1017.78 1017.89 1017.99 1018.05 1018.07 1018.02 1017.90 1017.73 1017.51 1017.23 1016.92 1016.57 1016.17 1015.73 1015.23 1014.67 1014.05 1013.37 1012.66 1011.94 1011.23 1010.58 1010.01 1009.55 1009.24 1009.08 1009.08 1009.23 1009.52
1014.58 1015.29 1015.93 1016.48 1016.91 1017.23 1017.43 1017.53 1017.57 1017.56 1017.55 1017.56 1017.59 1017.65 1017.73 1017.82 1017.89 1017.93 1017.91 1017.84 1017.71 1017.53 1017.30 1017.03 1016.73 1016.39 1016.01 1015.58 1015.10 1014.56 1013.95 1013.27 1012.54 1011.79 1011.04 1010.32 1009.67 1009.13 1008.73 1008.49 1008.42 1008.53 1008.79
1014.41 1015.13 1015.78 1016.34 1016.78 1017.10 1017.31 1017.43 1017.47 1017.48 1017.47 1017.48 1017.51 1017.56 1017.62 1017.68 1017.72 1017.73 1017.68 1017.57 1017.42 1017.21 1016.96 1016.68 1016.37 1016.04 1015.67 1015.25 1014.79 1014.26 1013.67 1013.01 1012.28 1011.52 1010.75 1010.00 1009.30 1008.71 1008.24 1007.94 1007.81 1007.87 1008.09
Thickness
5749 5749 5748 5748 5748 5747 5747 5746 5746 5745 5745 5745 5745 5744 5744 5744 5743 5743 5744 5744 5744 5743 5743 5742 5741 5739 5738 5737 5736 5734 5733 5732 5730 5729 5728 5727 5725 5724 5722 5721 5719 5718 5716
5749 5748 5747 5747 5747 5747 5746 5745 5745 5744 5744 5744 5744 5744 5744 5743 5743 5743 5744 5744 5744 5743 5743 5742 5742 5740 5739 5737 5736 5735 5734 5733 5731 5729 5728 5726 5725 5724 5722 5721 5719 5718 5716
5749 5748 5747 5746 5746 5746 5746 5745 5744 5744 5743 5743 5743 5743 5743 5743 5743 5743 5743 5743 5743 5743 5743 5742 5742 5741 5739 5738 5737 5736 5735 5733 5732 5730 5728 5727 5725 5724 5722 5721 5719 5718 5716
5749 5747 5746 5746 5746 5745 5745 5744 5743 5742 5742 5741 5741 5742 5742 5742 5742 5742 5742 5742 5742 5742 5742 5742 5741 5741 5740 5738 5737 5736 5735 5733 5732 5730 5729 5727 5725 5724 5723 5721 5720 5718 5716
5749 5748 5747 5746 5745 5744 5744 5744 5743 5742 5740 5740 5740 5740 5740 5740 5741 5741 5741 5741 5740 5740 5740 5740 5740 5740 5739 5738 5737 5736 5735 5733 5732 5730 5729 5727 5725 5724 5723 5721 5720 5718 5717
5750 5748 5747 5746 5745 5743 5742 5742 5741 5741 5739 5739 5739 5738 5738 5738 5739 5739 5739 5739 5739 5739 5738 5738 5738 5738 5737 5737 5736 5735 5734 5733 5732 5731 5729 5727 5726 5724 5723 5721 5720 5718 5717
5749 5748 5746 5745 5744 5743 5742 5741 5740 5738 5737 5737 5735 5733 5735 5736 5737 5737 5737 5737 5737 5737 5736 5735 5735 5735 5735 5735 5735 5734 5733 5733 5732 5730 5729 5727 5725 5724 5722 5721 5720 5718 5716
5749 5748 5746 5744 5743 5742 5740 5739 5738 5735 5735 5735 5732 5728 5726 5728 5733 5735 5734 5734 5734 5734 5734 5733 5733 5733 5732 5732 5732 5732 5732 5732 5731 5729 5728 5725 5724 5722 5721 5720 5718 5717 5715
5748 5746 5745 5744 5742 5741 5739 5738 5737 5735 5732 5732 5732 5728 5722 5720 5724 5729 5731 5731 5731 5731 5731 5731 5730 5730 5729 5729 5729 5729 5729 5728 5728 5727 5725 5724 5722 5720 5719 5717 5716 5714 5713
5747 5745 5744 5743 5741 5740 5738 5737 5737 5735 5733 5729 5729 5729 5727 5725 5720 5720 5724 5727 5728 5727 5727 5727 5727 5727 5726 5726 5726 5726 5726 5725 5724 5724 5722 5721 5720 5718 5717 5715 5713 5712 5710
5746 5745 5743 5742 5740 5739 5738 5736 5735 5733 5732 5729 5727 5726 5724 5723 5721 5718 5716 5719 5722 5723 5724 5723 5723 5723 5722 5722 5722 5722 5722 5721 5720 5720 5719 5718 5717 5716 5714 5712 5710 5708 5706
5745 5744 5743 5741 5739 5738 5737 5736 5735 5733 5731 5729 5727 5725 5723 5720 5718 5717 5715 5714 5715 5718 5719 5719 5719 5719 5718 5718 5718 5718 5718 5717 5717 5716 5714 5713 5712 5711 5710 5708 5706 5704 5702
5743 5743 5742 5739 5738 5737 5735 5734 5733 5731 5730 5728 5726 5725 5723 5722 5720 5718 5715 5712 5711 5712 5713 5714 5714 5714 5714 5713 5714 5713 5713 5712 5712 5711 5709 5708 5707 5705 5704 5703 5701 5699 5697
5743 5742 5741 5738 5737 5735 5734 5732 5730 5729 5728 5727 5726 5724 5722 5721 5719 5718 5715 5710 5706 5706 5707 5707 5709 5709 5709 5709 5709 5708 5707 5707 5706 5705 5703 5701 5700 5699 5698 5696 5695 5692 5690
5742 5740 5739 5737 5735 5734 5732 5730 5728 5726 5725 5724 5723 5722 5720 5719 5718 5716 5714 5711 5706 5701 5701 5702 5702 5704 5704 5703 5703 5702 5701 5701 5699 5698 5697 5695 5693 5692 5690 5689 5687 5685 5683
5740 5738 5736 5734 5732 5731 5729 5727 5725 5724 5722 5721 5720 5718 5717 5715 5714 5713 5711 5708 5706 5702 5697 5698 5697 5697 5698 5698 5697 5695 5695 5693 5692 5691 5689 5688 5686 5685 5683 5681 5679 5677 5676
5738 5735 5734 5732 5729 5727 5726 5724 5722 5720 5718 5717 5716 5715 5713 5712 5710 5708 5706 5704 5702 5699 5694 5693 5692 5691 5691 5690 5689 5689 5687 5686 5684 5683 5682 5680 5679 5677 5675 5673 5670 5668 5667
5735 5733 5731 5729 5726 5725 5723 5721 5718 5716 5715 5713 5712 5710 5708 5707 5705 5703 5701 5699 5697 5694 5691 5687 5686 5685 5684 5683 5681 5681 5680 5678 5676 5674 5674 5672 5670 5668 5667 5664 5662 5660 5658
5732 5729 5727 5725 5723 5721 5719 5717 5715 5713 5711 5709 5708 5706 5704 5701 5699 5697 5695 5693 5691 5690 5687 5683 5680 5678 5677 5675 5673 5672 5671 5669 5668 5667 5666 5664 5662 5660 5658 5655 5653 5651 5649
5727 5725 5723 5721 5719 5717 5715 5713 5710 5708 5707 5705 5703 5701 5699 5697 5694 5692 5690 5688 5686 5683 5681 5677 5674 5671 5669 5668 5666 5664 5662 5661 5660 5659 5657 5655 5653 5651 5649 5647 5644 5642 5640
5723 5721 5719 5716 5714 5712 5711 5708 5706 5704 5701 5699 5698 5696 5694 5692 5690 5688 5685 5682 5680 5677 5674 5671 5667 5665 5662 5661 5659 5657 5655 5653 5651 5649 5648 5646 5644 5642 5640 5638 5636 5634 5631
5719 5716 5714 5712 5709 5708 5706 5704 5701 5698 5696 5694 5691 5690 5688 5686 5684 5682 5679 5677 5675 5672 5668 5665 5662 5659 5657 5655 5653 5651 5649 5647 5644 5642 5640 5638 5636 5633 5631 5629 5627 5625 5623
5714 5711 5709 5707 5704 5702 5700 5698 5695 5693 5690 5688 5685 5683 5681 5679 5677 5674 5672 5670 5667 5665 5663 5660 5657 5654 5651 5650 5648 5645 5642 5640 5638 5635 5632 5630 5627 5625 5622 5620 5619 5616 5614
5710 5707 5704 5701 5698 5696 5694 5692 5689 5687 5684 5682 5679 5677 5674 5672 5670 5667 5665 5662 5659 5657 5655 5654 5651 5649 5647 5644 5642 5640 5636 5633 5629 5626 5625 5622 5619 5616 5615 5612 5610 5608 5605
5704 5701 5699 5696 5693 5691 5689 5686 5684 5681 5678 5675 5673 5671 5668 5666 5663 5661 5658 5654 5652 5650 5648 5646 5644 5642 5640 5637 5635 5633 5629 5627 5623 5620 5616 5614 5611 5608 5606 5604 5601 5599 5596
5699 5696 5693 5691 5688 5685 5683 5681 5679 5676 5672 5669 5667 5664 5662 5660 5657 5654 5651 5648 5645 5642 5641 5639 5637 5635 5632 5630 5628 5626 5623 5620 5617 5613 5610 5606 5603 5600 5598 5595 5592 5589 5586